Theta_e
309 312 316 315 313 313 318 319 317 320 322 319 320 321 320 322 322 321 321 326 331 333 333 332 331 329 327 325 322 319 317 315 315 314 316 320 325 331 332 333 335 335 335 337 338 339 338 335 334
309 316 315 310 313 316 316 314 316 318 321 318 320 320 322 324 321 318 322 325 331 331 328 327 327 325 322 318 315 313 311 310 309 309 309 309 311 312 318 328 330 333 335 335 337 338 337 334 334
313 317 313 315 309 313 315 314 314 322 320 320 322 320 321 323 318 318 320 325 327 326 324 323 321 318 315 313 311 308 306 304 303 303 303 304 305 310 314 317 320 326 330 333 335 336 336 334 333
317 311 307 316 315 314 312 315 320 322 321 321 321 323 320 319 319 320 321 325 324 322 321 319 315 314 312 309 306 303 302 301 301 302 302 304 311 314 316 316 317 318 321 325 329 333 334 335 335
315 307 310 312 311 312 310 312 315 320 317 320 320 322 321 318 319 319 322 323 321 320 318 316 314 313 308 305 303 302 302 302 302 302 303 309 314 314 315 315 316 317 317 318 320 325 328 332 334
312 310 314 312 311 311 311 312 315 316 317 317 320 319 318 315 318 318 320 321 320 319 315 314 312 308 306 305 304 304 304 304 304 305 309 311 311 311 312 312 313 314 315 316 317 319 321 326 330
312 310 314 313 313 314 315 314 315 315 315 317 316 319 316 314 317 318 318 318 317 316 314 313 311 307 306 305 305 304 304 305 304 305 307 307 309 310 312 312 312 313 313 314 315 316 317 319 327
312 313 317 315 316 317 315 315 314 315 314 313 313 316 316 314 317 316 316 316 315 314 313 312 309 307 307 306 305 304 305 305 304 305 306 307 308 309 310 310 310 312 312 313 314 315 316 317 321
310 315 316 316 314 315 313 314 314 313 314 314 314 313 313 316 316 315 314 313 313 313 312 311 309 307 307 306 305 305 305 304 304 306 307 308 309 309 309 309 309 310 311 311 312 313 314 315 320
313 313 314 312 312 313 313 313 313 314 314 313 313 312 313 315 314 312 311 310 311 311 311 310 308 308 307 306 305 305 304 303 307 308 308 309 309 309 309 308 308 308 308 308 309 311 312 313 314
311 312 309 312 312 313 313 312 311 312 311 310 312 311 311 311 311 311 311 311 312 312 311 309 308 307 307 306 305 305 303 307 308 308 309 309 308 309 308 308 308 308 308 307 308 310 314 312 311
314 312 312 312 313 313 313 312 313 311 312 312 308 310 310 310 309 310 311 312 312 312 311 309 308 307 307 306 305 304 306 308 308 309 308 309 308 309 309 309 309 309 307 307 308 310 315 310 313
313 313 311 310 311 312 311 312 312 311 310 308 308 308 310 310 310 311 312 312 312 312 311 310 308 307 306 305 304 305 308 309 309 309 308 308 308 308 309 309 309 309 307 307 309 313 316 312 317
312 312 312 312 313 312 313 312 313 312 311 311 309 308 307 309 309 310 310 312 311 311 311 310 308 307 306 305 305 307 309 309 309 309 308 308 308 308 308 308 308 308 307 308 311 315 316 318 318
314 314 312 312 312 312 312 314 313 312 310 310 310 308 307 306 309 309 311 312 312 311 311 309 307 306 305 305 306 309 309 309 309 308 308 307 307 308 308 307 308 307 308 309 315 316 317 318 320
314 313 315 315 313 313 313 318 315 311 312 312 310 308 307 306 306 309 310 312 311 310 308 307 306 305 305 305 308 309 309 309 308 308 308 308 308 308 308 306 307 307 307 311 316 318 319 319 318
313 315 314 315 312 314 313 315 314 313 311 310 308 308 308 307 305 308 310 311 311 310 307 306 305 305 305 307 309 308 308 308 308 309 309 309 308 308 307 307 307 307 309 316 316 318 317 314 314
313 315 314 316 316 314 315 314 314 313 312 313 311 309 308 308 307 308 308 310 310 308 306 305 305 306 306 308 309 309 309 310 310 310 308 307 307 306 306 306 306 308 315 317 316 316 314 314 313
314 316 318 315 314 315 314 314 314 313 311 312 310 308 307 307 306 307 307 308 308 306 305 305 306 306 307 308 309 309 310 310 310 308 307 306 306 306 306 306 307 312 315 315 316 313 313 310 312
312 314 314 314 313 314 313 314 314 313 312 311 310 310 308 308 305 304 304 305 306 305 305 306 306 306 308 309 309 309 310 309 309 307 306 306 306 307 306 307 309 314 314 314 314 314 311 312 313
313 313 314 316 314 313 311 313 312 312 313 311 308 308 310 308 306 303 301 302 304 304 305 306 306 306 308 309 309 309 309 308 308 308 306 306 307 307 307 308 313 315 314 313 312 313 313 312 313
316 312 313 316 315 315 311 317 309 312 311 312 311 308 309 307 305 302 301 300 302 304 306 306 306 307 308 309 309 310 310 308 308 309 307 307 307 308 308 309 313 314 314 314 313 313 314 313 312
315 313 313 314 314 313 312 311 312 310 312 313 312 310 308 306 304 302 301 301 302 304 306 306 306 307 308 309 309 310 310 308 310 309 308 309 309 310 311 312 313 314 314 314 313 313 313 313 312
309 311 310 308 309 310 310 312 313 311 313 317 312 310 308 306 303 301 301 302 302 305 306 306 306 307 308 309 309 309 310 311 310 309 310 310 311 313 313 314 314 314 314 313 313 313 313 313 313
310 312 309 308 309 314 310 310 313 312 310 311 311 308 307 305 302 301 300 300 302 305 305 306 306 307 307 308 308 309 310 310 311 310 311 311 312 313 314 316 315 313 314 314 312 312 313 313 312
310 311 310 308 314 314 310 315 315 311 308 307 309 306 307 305 303 301 300 300 302 305 305 306 306 307 307 308 308 309 309 310 311 313 313 314 314 313 316 315 315 313 314 314 313 312 312 313 313
311 312 308 311 301 309 310 308 308 307 307 305 304 308 308 307 303 302 300 301 302 304 305 306 306 307 307 308 308 308 309 310 311 313 313 315 314 315 316 316 316 315 315 314 313 312 312 313 313
310 308 311 307 309 312 310 310 310 307 304 303 303 303 305 306 304 301 299 300 302 304 305 305 306 307 307 307 308 308 309 310 311 312 314 315 316 316 316 316 316 315 315 314 313 312 312 312 313
309 310 309 309 309 313 315 313 306 302 302 301 302 302 302 305 304 302 299 300 301 303 304 304 305 306 307 307 307 308 308 309 310 312 313 314 316 317 315 317 316 316 315 314 314 313 313 312 312
308 309 309 311 310 309 313 312 303 303 301 300 300 300 300 302 302 301 300 300 300 301 302 303 305 305 306 307 306 307 308 308 309 310 312 313 314 317 316 316 317 316 316 316 315 314 314 314 312
Wind_Speed
3 2 2 5 3 4 3 5 2 2 1 2 1 3 4 2 4 4 2 10 17 25 22 18 16 13 11 10 9 7 6 5 6 6 7 8 8 9 9 9 10 12 13 14 14 15 14 17 18
2 2 3 3 4 1 5 4 5 5 2 2 2 2 2 3 1 4 9 15 21 23 20 17 16 13 11 9 7 6 5 5 6 7 7 8 8 10 11 12 14 14 14 16 18 19 18 19 22
4 3 3 4 3 5 4 4 5 3 2 3 2 1 5 3 2 8 5 22 23 20 18 16 14 12 9 8 6 5 4 4 5 5 6 7 8 8 9 10 13 17 18 16 17 22 22 23 23
5 4 4 2 6 6 5 3 3 2 3 3 2 2 1 2 3 9 16 25 24 20 17 14 12 11 8 6 5 5 4 4 5 6 7 8 8 9 10 11 12 13 15 21 19 17 21 25 29
4 3 2 2 5 5 5 4 6 4 3 2 2 2 3 1 4 14 23 25 23 20 17 13 11 9 7 6 5 4 4 5 6 7 8 8 8 9 10 12 14 15 15 16 18 19 18 18 25
3 2 2 4 5 5 6 4 5 4 3 2 1 2 3 2 13 20 23 24 21 19 16 13 10 8 6 5 3 2 3 4 5 7 7 7 8 10 11 12 13 14 15 17 18 19 19 18 16
6 3 3 3 4 4 4 2 3 3 2 5 3 4 2 1 14 23 21 21 19 16 15 13 10 8 5 4 3 2 3 5 8 8 8 11 10 10 11 10 11 12 14 15 16 18 19 20 19
4 3 1 4 3 5 1 2 0 3 5 1 5 4 5 4 19 20 20 19 18 17 15 13 11 9 6 5 3 3 4 7 9 9 10 10 10 10 9 9 11 12 13 14 14 16 16 16 17
3 3 3 5 4 4 2 1 2 1 2 2 4 4 2 17 23 20 18 18 19 19 16 13 12 10 6 5 4 5 7 9 10 10 9 9 8 7 8 11 11 11 12 13 13 15 17 17 16
4 4 9 5 3 3 1 1 2 3 3 5 5 2 5 26 27 21 18 20 23 22 19 16 13 10 8 7 6 7 8 9 9 9 8 4 5 6 10 10 11 11 13 15 16 15 15 17 17
5 5 5 4 4 2 1 3 1 2 7 9 8 5 6 9 15 16 19 23 29 25 20 18 15 12 10 7 7 8 9 9 8 6 5 5 7 9 11 10 11 12 13 15 15 13 13 15 15
2 7 4 3 1 0 3 2 5 8 12 1 8 3 6 9 10 16 20 27 25 23 21 19 17 14 11 8 7 8 9 8 6 4 5 6 9 10 10 11 13 13 11 13 12 13 10 10 14
3 3 3 6 4 5 4 7 6 12 14 8 9 6 9 10 12 20 24 24 23 22 20 22 19 16 11 8 7 8 8 6 5 3 6 9 12 12 11 11 10 9 10 10 11 12 6 10 15
2 3 7 6 5 4 5 3 2 6 1 4 6 9 9 12 15 15 16 24 23 22 21 22 20 15 10 7 7 7 6 5 3 4 8 9 9 10 9 12 10 8 8 9 12 8 8 16 19
1 5 7 5 2 5 3 7 10 13 6 10 7 7 7 11 15 21 29 29 27 23 21 24 20 14 9 7 7 6 6 4 3 5 6 7 8 7 9 8 6 5 4 8 9 6 14 20 25
2 3 4 1 4 1 2 9 8 5 4 9 8 8 8 9 11 22 27 29 24 23 26 23 18 12 8 6 5 5 5 3 1 5 7 8 7 7 6 6 5 3 5 8 2 11 21 18 27
3 3 5 7 5 3 3 8 7 3 5 10 9 10 9 9 9 19 24 26 26 27 27 23 18 12 7 4 3 3 0 1 2 5 6 5 4 4 3 3 2 3 6 2 13 20 19 27 29
6 4 5 5 2 1 3 16 16 15 9 16 9 10 10 11 11 17 21 24 26 29 26 21 16 11 7 4 1 3 2 1 3 3 2 2 1 2 3 2 2 2 5 22 23 19 29 31 30
4 3 2 2 2 1 6 14 18 14 10 17 10 9 10 9 5 11 20 25 29 28 25 20 16 11 7 5 5 3 3 3 2 2 0 2 4 5 4 5 5 4 17 20 25 29 32 25 29
2 2 5 4 2 2 6 16 20 17 13 8 7 9 8 3 4 5 20 27 33 31 24 19 14 11 8 6 7 4 3 2 3 2 4 5 5 5 7 7 4 8 20 24 28 29 22 21 10
3 4 2 5 4 2 7 9 7 5 3 5 7 6 2 5 7 6 10 21 30 28 24 19 15 11 8 8 8 5 3 2 1 2 5 5 5 6 8 6 6 23 21 26 26 29 24 16 20
2 6 5 3 2 3 4 6 6 7 11 5 8 5 3 2 5 6 7 16 26 25 20 17 14 11 10 8 8 5 4 4 4 3 6 5 6 7 7 5 8 20 20 27 28 28 19 22 20
5 3 5 2 3 2 2 2 8 3 8 6 5 2 4 4 7 9 8 16 23 22 20 16 13 10 9 8 8 5 6 5 4 6 7 6 6 7 7 7 9 18 22 26 26 22 22 22 22
7 6 7 5 2 2 4 5 6 4 3 4 3 2 5 5 6 7 10 18 19 18 17 15 13 11 10 9 10 7 6 6 7 9 7 6 5 6 7 7 13 21 21 22 27 24 22 22 18
4 6 2 4 2 5 3 3 10 8 7 5 9 10 4 6 7 7 9 11 18 19 17 15 13 11 10 9 10 10 7 8 7 9 8 8 7 9 7 11 15 20 21 23 24 21 22 23 18
6 7 5 6 4 3 3 5 6 5 6 4 4 7 3 5 5 7 8 12 18 20 17 14 13 11 11 10 10 10 8 9 8 8 9 9 8 10 10 13 15 16 20 21 21 20 22 21 20
6 5 6 4 2 3 3 7 12 2 6 8 8 4 4 1 3 6 6 12 16 17 17 15 14 12 12 11 11 12 10 10 10 9 9 9 11 11 14 15 16 16 17 17 20 23 24 22 19
4 5 3 2 2 4 3 4 6 10 14 13 17 14 7 1 1 3 4 9 13 14 15 14 13 12 11 12 12 13 12 11 11 10 10 10 9 13 15 16 16 15 17 19 21 21 22 26 20
3 3 2 4 5 5 3 5 6 7 9 11 15 17 15 6 1 2 3 8 12 14 15 15 14 13 13 14 14 14 14 13 12 12 12 12 11 12 16 18 18 18 18 20 24 24 22 25 25
1 6 6 4 4 3 1 3 4 6 9 12 14 16 18 14 9 5 2 6 9 12 14 16 16 16 15 14 15 16 15 15 14 13 14 13 13 13 15 19 20 20 21 21 23 24 25 25 30
Wind_Direction
315 305 322 46 56 63 263 259 265 255 237 231 23 200 192 110 167 204 132 157 162 168 171 173 179 180 182 189 189 199 211 221 236 247 247 251 254 253 245 260 275 267 254 253 246 241 230 221 215
78 111 54 82 100 92 262 258 237 233 240 108 134 71 32 241 162 126 135 180 165 171 171 173 179 184 188 196 202 214 232 248 257 260 264 269 272 266 260 250 251 261 267 255 250 245 235 224 216
127 102 86 111 137 192 217 222 230 283 266 229 175 83 154 216 197 177 194 175 169 170 172 175 182 189 192 199 214 226 234 246 263 270 280 286 287 287 290 283 271 254 256 264 266 255 248 233 224
145 43 39 123 223 250 212 254 177 270 273 243 169 238 283 199 188 175 164 165 168 170 174 175 182 190 199 208 217 230 246 257 272 288 290 293 298 300 301 301 297 292 282 262 274 276 263 250 237
70 67 90 273 263 266 249 259 173 203 277 260 166 263 240 219 169 166 165 170 173 171 175 179 191 199 201 209 219 237 261 278 290 291 293 299 307 306 303 299 296 292 288 284 280 282 284 269 249
62 98 97 244 258 268 280 239 164 205 251 290 158 188 235 286 168 167 170 174 180 179 178 182 189 195 192 206 215 249 284 309 322 320 316 321 321 315 308 304 302 298 289 283 279 280 280 275 267
125 106 223 231 262 280 239 134 200 200 250 261 175 189 307 249 170 165 169 175 181 187 185 186 191 189 186 197 221 273 288 310 316 309 307 314 311 310 308 303 304 302 294 291 286 278 276 275 256
106 108 180 246 232 264 220 338 217 185 244 325 188 235 267 212 164 163 172 182 190 192 194 198 197 200 206 217 250 289 287 302 309 306 306 311 310 309 317 315 310 311 300 295 288 280 279 273 274
169 82 221 253 169 255 356 27 267 19 278 257 220 183 285 160 163 166 172 185 193 196 199 203 204 208 214 222 260 267 284 303 304 302 304 304 307 324 330 320 314 307 307 308 301 286 273 274 264
115 171 212 215 218 242 318 203 285 349 287 264 280 202 135 162 169 172 179 188 195 198 200 203 204 210 212 228 256 275 296 305 304 301 301 304 308 310 308 313 316 307 304 302 292 293 277 261 260
169 216 210 256 231 190 221 272 203 195 264 225 227 234 155 165 180 187 196 198 202 205 204 202 203 209 215 237 261 280 300 306 304 305 296 293 308 302 291 293 293 297 308 307 294 289 294 247 226
180 244 229 281 294 324 242 291 284 202 245 235 246 226 166 179 194 201 204 210 208 208 210 205 206 208 219 239 264 290 306 306 305 305 327 315 300 302 309 304 300 296 303 306 296 302 292 229 188
221 271 228 258 283 255 313 253 249 263 260 262 263 243 192 203 210 216 216 218 213 213 211 206 203 207 221 243 275 296 304 302 298 315 322 304 302 311 306 307 307 306 309 303 306 316 251 170 168
200 246 273 281 266 249 223 245 120 258 219 278 224 238 220 210 212 216 217 221 216 215 210 199 199 206 220 248 278 299 301 293 292 308 306 300 299 301 307 305 303 302 311 312 313 308 179 151 159
109 317 324 253 246 231 168 277 229 247 289 276 270 242 238 230 213 218 220 217 214 210 198 189 193 202 219 250 284 297 294 278 298 309 309 301 294 280 291 298 301 313 306 327 341 145 153 147 124
77 57 347 297 139 253 136 268 276 248 233 266 274 259 247 251 222 228 228 222 210 197 186 184 191 197 215 250 280 298 285 262 284 282 276 285 285 286 278 297 291 297 324 332 141 149 130 123 109
6 213 207 311 187 142 150 281 276 301 309 276 262 263 256 251 241 229 224 213 202 194 183 182 187 193 209 236 282 307 256 187 229 288 291 294 277 256 264 264 287 349 337 41 135 125 125 99 107
184 211 238 238 230 177 248 266 271 282 281 278 276 261 250 249 238 233 212 202 194 185 180 180 182 187 198 201 184 150 127 51 320 301 311 300 259 192 183 172 82 46 72 128 129 116 113 119 119
129 174 241 277 11 313 251 273 280 281 264 277 276 270 257 251 267 188 184 183 178 174 176 179 179 183 192 185 165 154 122 52 17 4 346 124 117 131 141 136 114 56 124 137 135 129 126 106 118
304 7 290 290 356 194 302 283 283 277 260 251 251 266 270 248 102 121 153 168 174 172 176 176 180 182 191 193 180 156 127 45 348 68 106 122 131 129 130 134 113 135 142 143 144 141 123 116 123
217 203 219 232 330 257 330 286 318 296 283 278 249 240 197 223 171 151 151 160 171 172 174 177 179 180 184 183 175 166 138 178 244 149 126 131 132 135 140 133 117 148 157 148 149 152 141 121 124
243 201 173 204 65 238 45 287 306 294 304 274 287 223 189 128 133 147 159 159 171 174 172 175 176 179 182 182 180 174 184 178 207 170 145 142 136 140 150 141 145 166 165 169 161 154 154 146 147
217 116 139 117 124 6 317 64 271 318 289 298 359 176 174 171 165 162 169 166 175 172 172 173 174 180 186 182 177 173 175 190 190 168 155 147 145 144 160 158 169 170 177 175 173 165 160 158 157
146 78 46 54 72 339 239 146 289 247 250 312 343 62 174 155 149 130 143 167 170 173 173 174 177 183 191 188 184 196 190 187 178 166 163 152 147 144 149 173 179 179 182 182 176 177 174 168 175
96 92 335 347 9 226 0 93 247 275 284 275 296 294 187 148 155 152 154 162 173 177 178 179 182 191 196 196 197 199 196 189 191 181 169 160 151 150 164 178 179 187 187 183 182 182 179 177 179
178 155 164 212 196 244 56 228 248 216 298 276 315 334 73 138 159 175 170 175 181 184 184 187 193 202 202 205 205 205 205 195 187 181 170 168 170 169 164 176 176 188 192 191 194 189 186 185 191
176 198 158 98 26 60 226 279 304 89 31 8 346 340 346 143 180 190 172 183 190 192 194 196 201 210 214 216 213 211 210 205 195 191 188 184 176 174 175 179 182 188 194 197 192 196 195 195 193
147 173 94 9 201 239 272 276 242 359 350 352 4 2 337 329 175 182 173 186 201 208 209 208 214 218 222 225 226 222 218 215 208 201 198 193 193 188 190 193 196 195 199 201 200 198 204 208 209
149 182 146 146 172 182 161 250 356 14 2 0 5 3 350 329 279 189 191 207 209 215 218 221 219 221 224 228 230 228 226 224 220 217 211 207 201 200 203 202 202 203 202 204 208 207 203 208 215
257 203 170 161 216 238 189 254 19 42 24 20 15 12 14 19 11 359 300 228 226 226 228 227 228 229 231 235 234 233 232 232 230 226 223 221 220 209 209 213 216 212 213 210 212 212 210 210 208